This demonstration page uses our WeatherBlox Daily Observations layout. Learn more.

41.55636, -103.73856

Hourly Observations for May 18, 2019

Temp ( °F °C ) Dew Point ( °F °C ) Humidity (%) Winds ( mph kmh ) Pressure ( in mb ) Visibility ( mi km ) Precip ( " mm )
12:53 am 00:53 Mostly Clear 46 7.8 45 7.2 96 96 N 5 7 29.56 1001 10 16.09344 0 0
1:53 am 01:53 Mostly Cloudy 45 7.2 45 7.2 100 100 ESE 5 7 29.59 1002 10 16.09344 0 0
2:53 am 02:53 Mostly Cloudy 44 6.7 43 6.1 96 96 E 5 7 29.59 1002 10 16.09344 0 0
3:17 am 03:17 Mostly Clear with Mist and Fog 43 6.1 42 5.6 97 97 E 7 11 29.65 1004 2.5 4.02336 0 0
3:20 am 03:20 Mostly Cloudy with Mist and Fog 43 6.1 42 5.6 97 97 E 8 13 29.65 1004 1 1.609344 0 0
3:25 am 03:25 Mostly Cloudy with Fog 42 5.6 42 5.6 100 100 E 5 7 29.65 1004 0.25 0.402336 0 0
3:53 am 03:53 Mostly Cloudy with Fog 41 5 41 5 100 100 Calm 29.59 1002 0.5 0.804672 0 0
4:23 am 04:23 Mostly Cloudy with Fog 40 4.4 40 4.4 100 100 Calm 29.68 1005 0.25 0.402336 0 0
4:53 am 04:53 Mostly Cloudy with Fog 39 3.9 39 3.9 100 100 Calm 29.59 1002 0.25 0.402336 0 0
5:09 am 05:09 Mostly Cloudy with Fog 39 3.9 39 3.9 100 100 Calm 29.68 1005 0.5 0.804672 0 0
5:20 am 05:20 Mostly Cloudy with Fog 38 3.3 38 3.3 100 100 Calm 29.68 1005 0.25 0.402336 0 0
5:43 am 05:43 Mostly Cloudy with Mist and Fog 38 3.3 38 3.3 100 100 Calm 29.71 1006 1 1.609344 0 0
5:53 am 05:53 Mostly Cloudy with Mist and Fog 39 3.9 38 3.3 96 96 ENE 3 6 29.62 1003 0.75 1.207008 0 0
5:56 am 05:56 Partly Cloudy with Mist and Fog 38 3.3 38 3.3 100 100 ENE 5 7 29.71 1006 1.5 2.414016 0 0
5:58 am 05:58 Partly Cloudy with Mist and Fog 38 3.3 38 3.3 100 100 E 5 7 29.71 1006 3 4.828032 0 0
6:26 am 06:26 Mostly Cloudy 40 4.4 40 4.4 100 100 NE 5 7 29.74 1007 10 16.09344 0 0
6:53 am 06:53 Partly Cloudy 44 6.7 44 6.7 100 100 Calm 29.68 1005 10 16.09344 0 0
7:44 am 07:44 Mostly Cloudy 44 6.7 44 6.7 100 100 S 3 6 29.71 1006 10 16.09344 0 0
7:51 am 07:51 Mostly Sunny 45 7 45 7 100 100 SSW 3 6 29.68 1005 10 16.09344 0 0
7:53 am 07:53 Mostly Sunny 45 7.2 45 7.2 100 100 Calm 29.68 1005 10 16.09344 0 0
8:10 am 08:10 Mostly Cloudy 48 9 46 8 94 94 Calm 29.65 1004 10 16.09344 0 0
8:53 am 08:53 Mostly Cloudy 53 11.7 48 8.9 83 83 NW 8 13 29.65 1004 10 16.09344 0 0
9:31 am 09:31 Mostly Cloudy 55 12.8 48 8.9 77 77 NW 15 24 29.62 1003 10 16.09344 0 0
9:53 am 09:53 Mostly Cloudy 55 12.8 47 8.3 74 74 NW 15 24 29.65 1004 10 16.09344 0 0
10:53 am 10:53 Partly Cloudy 58 14.4 47 8.3 67 67 NW 17 28 29.62 1003 10 16.09344 0 0
11:53 am 11:53 Mostly Cloudy 58 14.4 45 7.2 62 62 NW 20 31 29.68 1005 10 16.09344 0 0
12:53 pm 12:53 Partly Cloudy 58 14.4 44 6.7 60 60 WNW 18 30 29.68 1005 10 16.09344 0 0
1:53 pm 13:53 Partly Cloudy 60 15.6 44 6.7 56 56 NNW 17 28 29.68 1005 10 16.09344 0 0
2:53 pm 14:53 Partly Cloudy 59 15 41 5 51 51 NNW 25 41 29.71 1006 10 16.09344 0 0
3:53 pm 15:53 Sunny 55 12.8 38 3.3 53 53 NNW 24 39 29.74 1007 10 16.09344 0 0
4:53 pm 16:53 Sunny 53 11.7 37 2.8 55 55 NNW 18 30 29.77 1008 10 16.09344 0 0
5:53 pm 17:53 Mostly Cloudy 48 8.9 35 1.7 61 61 NW 20 31 29.83 1010 10 16.09344 0 0
6:53 pm 18:53 Sunny 44 6.7 34 1.1 68 68 NNW 20 31 29.83 1010 10 16.09344 0 0
7:53 pm 19:53 Mostly Sunny 42 5.6 31 -0.6 65 65 NNW 15 24 29.88 1012 10 16.09344 0 0
8:53 pm 20:53 Clear 40 4.4 31 -0.6 70 70 NNW 22 35 29.88 1012 10 16.09344 0 0
9:53 pm 21:53 Clear 40 4.4 32 0 73 73 NW 15 24 29.88 1012 10 16.09344 0 0
10:53 pm 22:53 Clear 39 3.9 30 -1.1 70 70 NW 18 30 29.85 1011 10 16.09344 0 0
11:53 pm 23:53 Clear 38 3.3 31 -0.6 76 76 NNW 10 17 29.88 1012 10 16.09344 0 0

Powered by AerisWeather